Vorticity
5 2 4 4 7 7 11 -0 0 13 8 12 3 21 -14 38 5 4 3 3 5 6 7 1 5 6 4 4 5 3 5 5 6 7 7 6 5 3 4 5 5 5 6 5 5 5 6 6 6
5 5 4 4 1 -5 7 -3 7 8 -13 13 -11 -1 6 -14 1 4 2 2 2 4 7 6 4 5 7 4 4 5 5 6 6 6 6 4 3 4 5 5 6 6 6 6 5 6 6 6 6
5 5 3 3 4 1 -1 4 5 1 6 0 -16 2 4 2 -1 1 1 5 -0 2 2 4 6 4 6 6 3 6 6 5 5 5 5 4 4 4 5 5 6 6 7 6 6 6 6 6 6
9 7 6 1 2 13 8 17 8 2 12 -4 7 8 3 14 15 15 0 2 3 3 2 1 3 5 4 3 4 5 7 5 5 5 4 4 4 5 4 5 6 6 6 6 6 6 6 6 6
13 6 4 3 1 7 11 5 22 12 -2 8 5 10 -2 0 0 -4 4 4 3 2 3 3 2 2 5 5 5 5 8 7 6 6 4 4 3 4 4 5 6 5 5 6 5 5 4 4 4
6 10 9 1 1 7 8 -4 3 6 3 1 4 -1 19 -2 1 9 3 2 3 3 3 2 3 2 4 3 6 5 7 9 6 5 5 4 4 4 5 4 5 5 5 5 5 5 5 5 5
6 4 17 5 4 5 -2 -7 -0 5 7 -1 1 14 -2 17 -2 -1 10 5 3 3 2 1 2 4 5 3 4 6 6 9 7 5 5 4 4 5 4 5 4 5 5 5 5 5 5 5 6
-1 10 8 12 1 3 8 1 6 1 12 -4 6 7 3 10 24 -8 -14 3 3 1 2 2 2 5 7 5 4 6 6 7 6 5 4 4 4 4 4 4 5 5 5 5 5 5 5 6 6
10 11 15 1 6 -1 8 9 4 5 2 14 1 2 12 4 0 27 6 8 2 1 3 2 4 8 6 8 4 5 6 6 5 4 3 3 3 3 3 4 4 5 5 5 5 5 5 5 5
6 0 11 9 3 1 2 0 11 3 5 14 -1 8 1 2 6 3 14 6 3 9 4 2 8 9 6 7 6 5 5 5 4 3 3 3 3 3 3 3 3 4 4 4 4 5 5 5 5
-6 14 4 7 6 8 11 -4 6 17 5 -0 17 3 3 2 -1 2 24 -14 17 -7 -0 5 7 8 7 6 5 7 6 5 4 3 2 4 4 4 4 4 3 4 4 4 4 5 4 5 4
-3 2 2 18 12 7 3 5 -1 17 9 -1 -5 -0 5 8 4 2 0 7 4 -6 15 6 4 6 10 6 6 4 6 6 5 3 3 3 3 3 4 4 4 4 4 4 4 4 4 4 5
3 -5 13 -6 6 -7 1 11 10 -5 20 10 14 18 -2 4 6 5 3 1 4 4 2 3 2 2 7 7 12 9 6 7 5 4 3 3 3 3 3 3 4 4 4 4 4 4 4 4 4
7 6 15 -1 28 -25 36 4 0 3 15 8 -7 8 24 2 2 9 6 5 2 1 4 5 3 4 4 4 8 5 8 8 5 5 3 2 2 2 3 3 4 5 5 4 4 4 4 4 4
15 22 13 -8 -36 1 22 18 4 -5 9 15 11 5 -23 23 4 3 7 5 6 1 4 3 3 2 6 5 5 6 6 5 5 4 3 2 2 2 3 3 6 4 4 3 4 4 5 4 4
-2 3 7 18 -20 61 44 -11 9 16 -2 18 13 5 13 -24 21 1 4 5 6 7 3 4 3 2 3 6 4 5 4 6 3 5 4 2 2 2 3 3 5 2 4 4 4 4 4 4 5
10 12 3 10 3 7 12 20 -2 -8 -1 14 12 14 4 14 21 31 -8 6 5 6 5 5 5 4 3 4 3 4 6 7 4 4 5 3 2 3 2 4 4 1 3 4 4 5 5 5 5
7 -3 12 -5 23 35 47 16 16 14 9 -13 -0 27 14 -7 4 13 13 4 3 7 4 5 4 5 5 6 5 5 7 5 10 8 6 4 3 4 3 5 3 3 3 3 4 5 6 5 4
30 0 15 20 1 14 5 34 46 -1 8 25 9 -1 25 25 3 -6 9 28 6 1 6 5 5 7 7 6 6 8 8 -20 31 -4 4 5 4 5 3 4 2 2 4 3 3 5 6 5 4
16 6 -29 -28 44 20 35 -15 -6 -1 11 12 -13 -8 11 15 21 30 2 4 25 14 10 10 7 7 7 7 8 6 6 1 3 15 28 -5 -11 4 5 4 1 3 4 1 3 5 4 6 6
26 2 8 -30 30 -30 36 22 -3 11 -2 1 7 18 12 -8 -3 14 17 -4 -14 -0 26 -5 2 7 7 7 7 7 11 11 6 3 6 3 44 8 -19 -6 -4 0 0 1 4 4 4 5 5
26 -4 12 -10 -7 19 22 18 6 9 24 -6 -19 11 15 16 5 14 -2 6 7 13 2 10 40 -13 -4 3 5 5 4 1 4 1 1 0 -1 -6 12 7 1 -1 1 3 4 1 5 5 3
13 -4 44 2 -23 -3 14 8 7 -14 1 27 14 16 20 13 10 15 11 -16 0 -4 -7 -3 -12 3 34 -11 1 2 6 4 -2 4 3 -1 2 5 -6 2 3 3 4 5 6 12 9 5 6
17 13 10 20 4 4 4 7 16 2 5 4 -1 29 14 -2 14 15 30 19 12 3 -0 12 2 10 10 17 10 -7 0 2 -3 1 7 4 7 7 8 8 8 6 6 8 5 5 3 5 5
12 9 18 8 1 -5 1 7 3 9 2 5 13 12 23 19 22 17 -3 1 -1 28 33 14 18 9 3 3 12 18 16 2 3 4 1 9 -8 13 -0 6 9 11 11 8 8 8 9 9 8
19 14 10 23 15 4 8 5 -5 10 13 20 12 7 9 17 14 10 10 9 15 15 13 42 -3 7 7 1 -3 9 12 4 16 14 3 -10 15 2 7 9 8 10 12 12 10 8 9 10 8
19 11 12 16 12 14 12 15 4 5 4 -1 -2 5 8 8 8 21 14 6 10 12 10 3 21 27 3 -1 -9 -2 5 1 -0 9 -0 19 1 4 13 10 8 8 7 5 5 5 6 6 11
7 18 26 19 13 1 -3 12 31 8 2 7 8 4 5 5 7 10 13 14 19 18 13 14 7 22 13 12 14 25 4 3 8 9 5 2 14 10 10 12 13 14 13 11 11 10 10 9 9
-1 6 3 13 3 14 9 19 -0 1 14 22 16 8 5 3 4 6 11 16 20 16 14 10 15 18 18 1 10 8 26 17 9 4 -1 37 8 7 12 8 5 4 3 4 5 10 12 10 8
25 2 7 3 9 7 -1 2 7 20 14 9 14 9 7 5 4 3 5 7 8 7 11 18 27 9 9 15 8 19 20 14 17 32 23 8 9 6 8 6 6 7 7 8 8 6 5 2 5
Height
5776 5782 5788 5791 5799 5804 5810 5819 5820 5823 5828 5836 5842 5851 5850 5854 5856 5865 5869 5872 5875 5877 5880 5882 5885 5887 5888 5890 5892 5892 5893 5894 5895 5896 5897 5898 5898 5899 5899 5899 5899 5899 5898 5897 5896 5896 5895 5895 5895
5768 5774 5780 5783 5789 5797 5808 5818 5815 5819 5826 5835 5840 5842 5847 5852 5854 5861 5866 5868 5872 5875 5878 5880 5882 5885 5887 5888 5890 5891 5892 5893 5894 5895 5896 5897 5897 5897 5898 5898 5898 5897 5897 5896 5896 5895 5895 5895 5895
5759 5765 5771 5774 5782 5792 5807 5814 5814 5814 5820 5825 5832 5833 5843 5849 5851 5857 5862 5865 5869 5872 5875 5877 5880 5883 5885 5887 5887 5889 5890 5891 5893 5894 5895 5895 5896 5896 5897 5897 5897 5896 5896 5896 5895 5895 5895 5894 5894
5749 5755 5761 5766 5780 5792 5804 5810 5806 5808 5813 5822 5825 5835 5840 5844 5850 5854 5856 5861 5866 5870 5873 5874 5876 5880 5882 5885 5886 5887 5888 5889 5891 5892 5893 5894 5895 5895 5896 5896 5896 5896 5895 5895 5894 5894 5894 5893 5893
5739 5746 5753 5763 5778 5788 5797 5794 5794 5802 5811 5815 5821 5830 5835 5840 5843 5847 5852 5857 5862 5867 5870 5872 5874 5877 5880 5882 5884 5886 5886 5887 5889 5891 5892 5893 5893 5894 5894 5895 5895 5895 5894 5894 5893 5893 5892 5892 5892
5730 5737 5746 5758 5774 5782 5789 5785 5794 5798 5804 5810 5816 5823 5832 5836 5839 5844 5848 5852 5857 5863 5867 5870 5871 5874 5877 5879 5882 5884 5884 5885 5887 5888 5890 5891 5892 5893 5893 5893 5893 5893 5893 5893 5892 5891 5890 5890 5890
5723 5730 5742 5757 5767 5773 5773 5778 5788 5796 5802 5808 5813 5819 5827 5831 5835 5837 5843 5847 5853 5858 5863 5867 5868 5870 5874 5876 5879 5880 5882 5883 5885 5886 5888 5889 5890 5891 5891 5891 5891 5891 5891 5891 5891 5890 5889 5889 5888
5719 5726 5736 5747 5756 5765 5765 5778 5784 5795 5796 5806 5809 5812 5823 5828 5830 5831 5837 5842 5847 5855 5859 5863 5866 5868 5870 5873 5875 5877 5879 5881 5882 5884 5885 5886 5887 5888 5888 5889 5889 5889 5889 5889 5888 5888 5887 5887 5886
5713 5715 5723 5740 5749 5758 5762 5773 5781 5787 5793 5800 5806 5809 5820 5822 5821 5825 5831 5838 5842 5850 5854 5858 5862 5865 5867 5870 5872 5874 5877 5879 5880 5881 5882 5883 5884 5886 5886 5886 5886 5886 5886 5886 5885 5886 5885 5885 5885
5695 5705 5719 5740 5746 5748 5758 5768 5774 5781 5787 5795 5801 5806 5812 5818 5815 5820 5828 5833 5840 5846 5849 5854 5858 5861 5864 5866 5868 5870 5873 5875 5877 5878 5880 5881 5882 5883 5883 5883 5883 5883 5882 5883 5882 5882 5882 5882 5882
5690 5701 5723 5728 5733 5740 5751 5757 5766 5775 5779 5786 5797 5802 5806 5814 5816 5820 5824 5828 5835 5839 5844 5849 5854 5857 5861 5862 5865 5866 5869 5872 5874 5875 5877 5879 5880 5880 5881 5881 5881 5881 5881 5880 5880 5880 5879 5879 5879
5686 5699 5710 5724 5725 5735 5747 5749 5760 5765 5772 5784 5792 5798 5801 5807 5812 5819 5823 5826 5830 5835 5842 5844 5849 5854 5857 5859 5862 5864 5866 5868 5871 5873 5874 5876 5877 5877 5878 5879 5879 5879 5879 5878 5878 5878 5877 5876 5876
5682 5695 5705 5714 5725 5738 5739 5742 5751 5760 5771 5777 5784 5790 5796 5801 5805 5813 5819 5823 5828 5832 5838 5841 5846 5849 5853 5855 5858 5861 5863 5865 5867 5869 5871 5872 5873 5874 5875 5875 5875 5875 5875 5875 5875 5875 5874 5874 5873
5682 5690 5700 5709 5722 5720 5726 5737 5749 5757 5764 5769 5777 5783 5790 5796 5801 5806 5814 5819 5823 5828 5833 5838 5842 5845 5847 5851 5853 5856 5859 5862 5863 5865 5866 5867 5869 5869 5871 5871 5872 5871 5871 5871 5871 5871 5870 5870 5869
5672 5683 5695 5702 5711 5714 5723 5731 5745 5755 5755 5760 5768 5775 5784 5791 5796 5801 5807 5814 5819 5823 5827 5831 5836 5840 5842 5846 5848 5851 5853 5856 5858 5860 5861 5862 5864 5866 5866 5868 5867 5867 5867 5867 5866 5866 5866 5865 5864
5668 5677 5685 5696 5707 5707 5719 5729 5743 5740 5743 5755 5763 5769 5776 5784 5790 5797 5802 5808 5813 5818 5822 5826 5830 5833 5836 5840 5843 5845 5848 5850 5852 5854 5856 5858 5859 5861 5862 5862 5863 5863 5863 5862 5861 5860 5860 5860 5859
5658 5669 5682 5692 5703 5708 5711 5722 5726 5730 5745 5752 5758 5764 5770 5776 5782 5790 5796 5801 5806 5811 5815 5819 5823 5827 5830 5833 5836 5839 5842 5845 5847 5848 5850 5852 5855 5856 5856 5857 5857 5857 5857 5857 5856 5855 5854 5854 5853
5655 5667 5680 5693 5700 5703 5706 5709 5718 5728 5738 5745 5748 5754 5763 5771 5776 5783 5788 5795 5800 5805 5810 5813 5817 5821 5824 5827 5831 5833 5836 5837 5840 5842 5844 5847 5848 5850 5851 5851 5851 5851 5851 5850 5850 5850 5849 5848 5846
5663 5671 5680 5687 5694 5696 5701 5707 5713 5723 5731 5737 5745 5749 5756 5763 5770 5774 5781 5786 5792 5797 5803 5807 5810 5814 5817 5821 5824 5826 5828 5830 5833 5835 5838 5840 5841 5843 5844 5844 5844 5844 5844 5843 5843 5842 5842 5841 5839
5655 5664 5672 5680 5688 5694 5697 5703 5712 5720 5728 5735 5741 5746 5752 5755 5759 5762 5775 5780 5784 5790 5795 5800 5803 5807 5810 5814 5816 5819 5821 5824 5827 5829 5832 5834 5834 5836 5837 5837 5836 5836 5836 5836 5835 5834 5834 5833 5831
5652 5660 5668 5679 5685 5688 5694 5700 5711 5717 5723 5729 5735 5739 5745 5749 5753 5755 5766 5772 5778 5782 5788 5792 5795 5798 5802 5805 5808 5811 5815 5816 5818 5821 5823 5825 5824 5828 5829 5829 5829 5828 5828 5827 5827 5826 5825 5824 5823
5653 5661 5665 5676 5681 5687 5691 5700 5708 5714 5718 5723 5727 5732 5737 5741 5747 5750 5761 5768 5771 5775 5780 5783 5787 5792 5794 5797 5800 5803 5806 5808 5810 5812 5814 5815 5816 5818 5820 5821 5821 5820 5819 5819 5818 5817 5816 5814 5813
5653 5662 5666 5677 5681 5682 5690 5699 5705 5711 5718 5723 5728 5729 5732 5735 5742 5745 5751 5762 5764 5767 5772 5774 5779 5783 5786 5789 5791 5794 5796 5798 5802 5803 5804 5806 5807 5808 5809 5809 5810 5809 5809 5808 5808 5807 5806 5804 5804
5651 5659 5667 5675 5678 5684 5690 5698 5702 5705 5713 5717 5721 5724 5728 5731 5735 5739 5745 5748 5753 5758 5761 5765 5769 5773 5776 5777 5780 5784 5786 5789 5791 5794 5795 5797 5798 5798 5798 5798 5797 5798 5797 5797 5796 5796 5796 5795 5794
5652 5658 5664 5671 5675 5684 5690 5696 5697 5703 5708 5713 5716 5720 5722 5725 5730 5733 5737 5741 5745 5749 5750 5754 5758 5761 5764 5767 5769 5773 5776 5779 5781 5783 5784 5786 5787 5789 5790 5787 5786 5786 5786 5785 5785 5785 5785 5785 5784
5652 5659 5664 5668 5675 5684 5689 5692 5696 5701 5705 5709 5712 5714 5716 5719 5722 5725 5728 5731 5736 5739 5740 5743 5748 5750 5754 5757 5760 5762 5764 5767 5769 5771 5772 5774 5775 5777 5778 5776 5775 5775 5774 5774 5773 5774 5773 5774 5774
5651 5655 5661 5667 5673 5680 5686 5689 5694 5698 5700 5703 5708 5710 5712 5715 5717 5718 5721 5723 5725 5730 5731 5734 5736 5740 5744 5747 5749 5751 5753 5756 5757 5759 5760 5762 5763 5764 5764 5764 5764 5764 5763 5763 5763 5763 5763 5763 5762
5652 5656 5660 5664 5671 5676 5680 5684 5687 5691 5695 5699 5703 5704 5706 5708 5711 5713 5715 5716 5716 5720 5723 5724 5727 5729 5731 5732 5735 5738 5740 5742 5743 5746 5748 5749 5750 5750 5751 5751 5752 5752 5752 5752 5752 5752 5751 5751 5751
5652 5655 5659 5664 5669 5674 5677 5680 5684 5687 5691 5694 5697 5699 5700 5704 5706 5707 5708 5709 5709 5711 5715 5716 5717 5719 5720 5721 5723 5726 5727 5729 5730 5733 5735 5736 5737 5738 5739 5740 5740 5741 5741 5740 5741 5740 5740 5740 5739
5651 5653 5658 5662 5667 5671 5674 5678 5679 5683 5686 5689 5691 5693 5696 5699 5700 5701 5701 5702 5702 5702 5704 5705 5707 5711 5710 5712 5713 5716 5718 5719 5720 5722 5722 5723 5723 5725 5727 5728 5728 5728 5728 5728 5728 5728 5728 5728 5728